[Iaude] MPEC M62: 2017 BZ236 [a=110.09,e=0.73,i=19.0,H=9.28]

mpec at cfa.harvard.edu mpec at cfa.harvard.edu
Wed Jun 26 22:25:28 EDT 2024


M.P.E.C. 2024-M62                                 Issued 2024 June 27, 02:23 UT

     The Minor Planet Electronic Circulars contain information on unusual
         minor planets, routine data on comets and natural satellites,
         and occasional editorial announcements.  They are published
    on behalf of Division F of the International Astronomical Union by the
          Minor Planet Center, Smithsonian Astrophysical Observatory,
                          Cambridge, MA 02138, U.S.A.
			  
             Prepared using the Tamkin Foundation Computer Network

                              MPC at CFA.HARVARD.EDU
            URL https://www.minorplanetcenter.net/    ISSN 1523-6714

                                   2017 BZ236                                   


Additional Observations:
     K17BN6Z 1C2015 03 16.45417212 12 09.64 -00 40 18.1                WEM062T09
     K17BN6Z 1C2015 03 16.55482212 12 09.14 -00 40 14.1                WEM062T09
     K17BN6Z 1C2016 04 02.37970312 19 20.63 -00 38 45.8                WEM062T09
     K17BN6Z 1C2016 06 04.25194712 15 52.14 -00 09 57.4                WEM062T09
     K17BN6Z 1C2016 06 04.27035912 15 52.14 -00 09 57.2                WEM062T09
     K17BN6Z 1C2016 06 04.33516412 15 52.06 -00 09 56.5                WEM062T09
     K17BN6Z 1C2016 06 05.33916012 15 51.32 -00 09 46.6                WEM062T09
     K17BN6Z 1C2017 01 23.60757712 32 34.07 -01 28 03.3                WEM062T09
     K17BN6Z 1C2017 01 23.61826612 32 34.05 -01 28 03.2                WEM062T09
     K17BN6Z 1C2019 04 03.44538712 46 39.84 -01 09 48.6                WEM062T09
     K17BN6Z 1C2019 04 03.47491212 46 39.68 -01 09 47.4                WEM062T09

Observer details:
T09 Subaru Telescope, Maunakea.  Observer .  Measurer S. Deen.  8.3-m Subaru
    Telescope + CCD.

First and last observations above in comparison with prediction:
Residuals in seconds of arc (or two decimals in degrees), reference and Delta-T
150316 T09 0.28+ 0.05+    190403 T09 0.13+ 0.03+    MPO824946  -11552 days

Orbital elements:
2017 BZ236                                                                      
Epoch 2024 Mar. 31.0 TT = JDT 2460400.5                 Alexandersen            
M 356.73258              (2000.0)            P               Q                  
n   0.00085329     Peri.   51.74640     -0.60346158     +0.79736293             
a 110.0879779      Node   181.19974     -0.79466980     -0.60208529             
e   0.7265893      Incl.   19.00301     -0.06583344     -0.04129965             
P1155              H    9.28          G   0.15           U   6                  
Residuals in seconds of arc
150316 T09  0.0   0.0     170128 T09  0.1+  0.0     170223 T09  0.1+  0.0
150316 T09  0.0   0.0     170128 T09  0.0   0.1-    170223 T09  0.0   0.2+
160402 T09  0.1+  0.0     170128 T09  0.1-  0.0     170223 T09  0.0   0.0
160604 T09  0.2-  0.1-    170128 T09  0.1-  0.2+    170223 T09  0.0   0.0
160604 T09  0.1+  0.1-    170202 T09  0.1+  0.2+    170223 T09  0.1+  0.1+
160604 T09  0.2-  0.0     170202 T09  0.0   0.2+    190403 T09  0.0   0.1-
160605 T09  0.1+  0.1-    170202 T09  0.1+  0.0     190403 T09  0.1-  0.1-
170123 T09  0.1+  0.0     170202 T09  0.2-  0.1+
170123 T09  0.0   0.1-    170223 T09  0.1+  0.0

Ephemeris:
2017 BZ236               a,e,i = 110.09, 0.73, 19                q = 30.0992
Date    TT    R. A. (2000) Decl.     Delta      r    Elong.  Phase     V
2024 05 28    13 32 25.2 -01 32 55  31.0023 31.7224   134.6     1.3    24.4
...
2024 06 12    13 31 42.0 -01 29 36  31.1858 31.7100   120.3     1.6    24.5
...
2024 06 20    13 31 28.0 -01 28 57  31.2979 31.7034   112.7     1.7    24.5
...
2024 06 26    13 31 21.9 -01 28 58  31.3867 31.6984   107.0     1.8    24.5
2024 06 27    13 31 21.2 -01 29 00  31.4019 31.6976   106.0     1.8    24.5
2024 06 28    13 31 20.7 -01 29 04  31.4171 31.6968   105.1     1.8    24.5
...
2024 07 04    13 31 19.9 -01 29 40  31.5097 31.6919    99.4     1.8    24.5
...
2024 07 12    13 31 25.2 -01 31 08  31.6357 31.6853    91.9     1.8    24.5
...
2024 07 27    13 31 54.8 -01 35 48  31.8715 31.6730    77.8     1.8    24.5

M. P. C. Staff               (C) Copyright 2024 MPC           M.P.E.C. 2024-M62





More information about the Iaude mailing list